User: anonymous   Login
Location: Bangkok
(13.7500°N, 100.5170°E)
Time: 20:03:22
(UTC+07:00)
Language:

SPOT 1/Viking Rocket - Orbit

View from above orbital plane
View from above orbital plane
View from above satellite
View from above satellite

Ground track
Ground track

The orbit data is extracted from the following two-line orbital elements,

1 16615U 86019C   15141.17661560  .00000209  00000-0  95530-4 0  9994
2 16615 098.7097 199.2377 0012971 112.7797 309.6479 14.31478372531044
Epoch (UTC): 21 May 2015 04:14:19
Eccentricity: 0.0012971
inclination: 98.7097°
perigee height: 777 km
apogee height: 796 km
right ascension of ascending node: 199.2377°
argument of perigee: 112.7797°
revolutions per day: 14.31478372
mean anomaly at epoch: 309.6479°
orbit number at epoch: 53104

The dashed part of the orbit path shows where the satellite is in the earth's shadow,  

DLR